{"data":{"norad_id":56528,"epoch":"2026-09-20T02:51:06.238944Z","epoch_age_seconds":147706,"freshness":"FRESH","line1":"1 56528U 23065AB  26263.11882221  .00000042  00000+0  11039-4 0  9999","line2":"2 56528  43.0004 197.9670 0000774 241.4202 118.6572 15.27576247186293","mean_motion":15.27576247,"eccentricity":7.74e-5,"inclination_deg":43.0004,"raan_deg":197.967,"arg_perigee_deg":241.4202,"mean_anomaly_deg":118.6572,"bstar":1.1039e-5,"rev_number":18629,"period_min":94.266980311327,"perigee_km":482.52927722115,"apogee_km":483.59139056844,"semimajor_km":6861.1973338948,"source":"CELESTRAK","updated_at":"2026-09-21T09:00:33.474066Z"}}